Location: Champignolles
(47.0543°N, 4.5663°E)
Time: 06:20:35
(UTC+00:00)

Cosmos 923 Rocket - Pass Details

Date: 14 April 2021
Orbit: 759 x 785 km, 74.0° (Epoch: 13 May)

Event Time Altitude Azimuth Distance (km) Brightness Sun altitude
Rises 01:52:04 0° 344° (NNW) 3,230 7.7 -26.5°
Reaches altitude 10° 01:54:41 10° 354° (N) 2,301 7.0 -26.3°
Maximum altitude 01:59:21 32° 57° (ENE) 1,286 5.7 -25.8°
Drops below altitude 10° 02:04:00 10° 121° (ESE) 2,296 6.5 -25.3°
Sets 02:06:36 0° 131° (SE) 3,221 7.2 -25.0°
